Location: Blangy-Tronville
(49.8790°N, 2.4226°E)
Time: 23:26:19
(UTC+00:00)

Cosmos 1346 Rocket - Pass Details

Date: 18 November 2025
Orbit: 480 x 491 km, 81.2° (Epoch: 05 December)

Event Time Altitude Azimuth Distance (km) Brightness Sun altitude
Rises 17:33:48 0° 357° (N) 2,590 6.2 -14.4°
Reaches altitude 10° 17:36:12 10° 11° (NNE) 1,702 5.1 -14.8°
Enters shadow 17:37:49 19° 32° (NNE) 1,230 4.2 -15.1°
